Location: Nairn
(57.5833°N, 3.8667°W)
Time: 02:29:06
(UTC+00:00)

Cosmos 1634 Rocket - Pass Details

Date: 07 August 2020
Orbit: 959 x 992 km, 82.9° (Epoch: 19 September)

Event Time Altitude Azimuth Distance (km) Brightness Sun altitude
Exits shadow 01:50:23 16° 178° (S) 2,314 5.4 -13.8°
Maximum altitude 01:55:29 72° 97° (E) 1,029 4.2 -13.6°
Drops below altitude 10° 02:01:41 10° 15° (NNE) 2,727 7.8 -13.2°
Sets 02:04:12 0° 13° (NNE) 3,673 8.8 -13.1°
